Home > Weather > Hamamatsu > Past weeks

Flag for Japan Past Weather in Hamamatsu, Japan — Yesterday and Last 2 Weeks

Now
81 °F

Warm.


Feels Like: 86 °F
Forecast: 75 / 88 °F
Wind: 5 mph from West

Location: Omaezaki

Current Time: Aug 26, 2016 at 9:19:40 PM

Latest Report: Aug 26, 2016 at 8:00 PM


Visibility: 6 mi

Pressure: 29.67 "Hg

Humidity: 85%

Dew Point: 76 °F

Location of HamamatsuLocation

Past Weather in Hamamatsu — Graph

°F

Hamamatsu Temperature Yesterday

Maximum temperature yesterday: 87 °F (at 1:00 PM)
Minimum temperature yesterday: 77 °F (at 2:00 AM)
Average temperature yesterday: 81 °F

High & Low Weather Summary for the Past Weeks

 TemperatureHumidityPressure
High90 °F (Aug 16, 2:00 PM)98% (Aug 18, 3:00 AM)29.85 "Hg (Aug 18, 3:00 AM)
Low75 °F (Aug 14, 1:00 AM)58% (Aug 16, 2:00 PM)29.38 "Hg (Aug 17, 3:00 AM)
Average82 °F82%29.68 "Hg
* Reported Aug 11 8:00 PM — Aug 26 8:00 PM, Hamamatsu, Weather by CustomWeather, © 2016

Note: Actual official high and low records may vary slightly from our data, if they occured in-between our weather recording intervals... More about our weather records

Advertising

Hamamatsu Weather History for the Previous 24 Hours

Scroll right to see more
 ConditionsComfort  
Time TempWeatherWind HumidityBarometerVisibility
8:00 PM
Fri, Aug 26
81 °FWarm.5 mph85%29.67 "Hg6 mi
7:00 PM81 °FWarm.5 mph81%29.65 "Hg11 mi
6:00 PM82 °FWarm.6 mph78%29.64 "Hg12 mi
5:00 PM85 °FWarm.7 mph69%29.63 "Hg12 mi
4:00 PM85 °FWarm.9 mph68%29.64 "Hg12 mi
3:00 PM86 °FWarm.10 mph70%29.64 "Hg12 mi
2:00 PM86 °FWarm.9 mph72%29.65 "Hg12 mi
1:00 PM85 °FWarm.8 mph74%29.67 "Hg12 mi
12:00 PM85 °FWarm.8 mph69%29.69 "Hg12 mi
11:00 AM85 °FWarm.3 mph70%29.70 "Hg12 mi
10:00 AM83 °FWarm.7 mph75%29.72 "Hg12 mi
9:00 AM82 °FWarm.7 mph79%29.72 "Hg12 mi
8:00 AM80 °FWarm.8 mph84%29.72 "Hg12 mi
7:00 AM79 °FWarm.7 mph87%29.72 "Hg12 mi
6:00 AM77 °FWarm.6 mph90%29.72 "Hg12 mi
5:00 AM77 °FMild.5 mph93%29.71 "Hg12 mi
4:00 AM77 °FWarm.5 mph91%29.71 "Hg12 mi
3:00 AM77 °FWarm.5 mph91%29.71 "Hg12 mi
2:00 AM78 °FWarm.3 mph91%29.71 "Hg12 mi
1:00 AM79 °FWarm.3 mph90%29.72 "Hg12 mi
12:00 AM80 °FWarm.3 mph89%29.74 "Hg12 mi
11:00 PM
Thu, Aug 25
79 °FWarm.3 mph89%29.75 "Hg12 mi
10:00 PM80 °FWarm.5 mph87%29.77 "Hg12 mi
9:00 PM80 °FWarm.3 mph85%29.77 "Hg12 mi
Weather by CustomWeather, © 2016

See weather overviewHow to use our weather pages